Year,Month,Day,Hour,Minute,Value (Times are PST for temperature in C)
2006,04,18,00,00,7.00
2006,04,18,00,01,7.00
2006,04,18,00,02,7.00
2006,04,18,00,03,7.10
2006,04,18,00,04,7.10
2006,04,18,00,05,7.10
2006,04,18,00,06,7.10
2006,04,18,00,07,7.10
2006,04,18,00,08,7.10
2006,04,18,00,09,7.10
2006,04,18,00,10,7.10
2006,04,18,00,11,7.10
2006,04,18,00,12,7.20
2006,04,18,00,13,7.20
2006,04,18,00,14,7.20
2006,04,18,00,15,7.20
2006,04,18,00,16,7.10
2006,04,18,00,17,7.10
2006,04,18,00,18,7.10
2006,04,18,00,19,7.10
2006,04,18,00,20,7.10
2006,04,18,00,21,7.10
2006,04,18,00,22,7.10
2006,04,18,00,23,7.10
2006,04,18,00,24,7.10
2006,04,18,00,25,7.10
2006,04,18,00,26,7.10
2006,04,18,00,27,7.10
2006,04,18,00,28,7.10
2006,04,18,00,29,7.10
2006,04,18,00,30,7.10
2006,04,18,00,31,7.10
2006,04,18,00,32,7.10
2006,04,18,00,33,7.10
2006,04,18,00,34,7.10
2006,04,18,00,35,7.10
2006,04,18,00,36,7.10
2006,04,18,00,37,7.10
2006,04,18,00,38,7.10
2006,04,18,00,39,7.10
2006,04,18,00,40,7.10
2006,04,18,00,41,7.10
2006,04,18,00,42,7.20
2006,04,18,00,43,7.20
2006,04,18,00,44,7.20
2006,04,18,00,45,7.20
2006,04,18,00,46,7.20
2006,04,18,00,47,7.30
2006,04,18,00,48,7.30
2006,04,18,00,49,7.30
2006,04,18,00,50,7.30
2006,04,18,00,51,7.30
2006,04,18,00,52,7.30
2006,04,18,00,53,7.30
2006,04,18,00,54,7.30
2006,04,18,00,55,7.30
2006,04,18,00,56,7.30
2006,04,18,00,57,7.30
2006,04,18,00,58,7.30
2006,04,18,00,59,7.30
2006,04,18,01,00,7.30
2006,04,18,01,01,7.30
2006,04,18,01,02,7.30
2006,04,18,01,03,7.30
2006,04,18,01,04,7.30
2006,04,18,01,05,7.30
2006,04,18,01,06,7.30
2006,04,18,01,07,7.30
2006,04,18,01,08,7.30
2006,04,18,01,09,7.30
2006,04,18,01,10,7.30
2006,04,18,01,11,7.30
2006,04,18,01,12,7.30
2006,04,18,01,13,7.30
2006,04,18,01,14,7.30
2006,04,18,01,15,7.30
2006,04,18,01,16,7.30
2006,04,18,01,17,7.30
2006,04,18,01,18,7.30
2006,04,18,01,19,7.30
2006,04,18,01,20,7.30
2006,04,18,01,21,7.30
2006,04,18,01,22,7.30
2006,04,18,01,23,7.30
2006,04,18,01,24,7.30
2006,04,18,01,25,7.30
2006,04,18,01,26,7.30
2006,04,18,01,27,7.30
2006,04,18,01,28,7.30
2006,04,18,01,29,7.30
2006,04,18,01,30,7.30
2006,04,18,01,31,7.30
2006,04,18,01,32,7.30
2006,04,18,01,33,7.30
2006,04,18,01,34,7.30
2006,04,18,01,35,7.30
2006,04,18,01,36,7.30
2006,04,18,01,37,7.30
2006,04,18,01,38,7.30
2006,04,18,01,39,7.30
2006,04,18,01,40,7.30
2006,04,18,01,41,7.30
2006,04,18,01,42,7.30
2006,04,18,01,43,7.30
2006,04,18,01,44,7.30
2006,04,18,01,45,7.30
2006,04,18,01,46,7.30
2006,04,18,01,47,7.30
2006,04,18,01,48,7.30
2006,04,18,01,49,7.30
2006,04,18,01,50,7.30
2006,04,18,01,51,7.30
2006,04,18,01,52,7.30
2006,04,18,01,53,7.30
2006,04,18,01,54,7.30
2006,04,18,01,55,7.30
2006,04,18,01,56,7.30
2006,04,18,01,57,7.30
2006,04,18,01,58,7.30
2006,04,18,01,59,7.30
2006,04,18,02,00,7.30
2006,04,18,02,01,7.30
2006,04,18,02,02,7.30
2006,04,18,02,03,7.30
2006,04,18,02,04,7.30
2006,04,18,02,05,7.30
2006,04,18,02,06,7.30
2006,04,18,02,07,7.30
2006,04,18,02,08,7.30
2006,04,18,02,09,7.30
2006,04,18,02,10,7.30
2006,04,18,02,11,7.30
2006,04,18,02,12,7.30
2006,04,18,02,13,7.30
2006,04,18,02,14,7.30
2006,04,18,02,15,7.30
2006,04,18,02,16,7.30
2006,04,18,02,17,7.30
2006,04,18,02,18,7.30
2006,04,18,02,19,7.30
2006,04,18,02,20,7.30
2006,04,18,02,21,7.30
2006,04,18,02,22,7.30
2006,04,18,02,23,7.30
2006,04,18,02,24,7.30
2006,04,18,02,25,7.30
2006,04,18,02,26,7.30
2006,04,18,02,27,7.30
2006,04,18,02,28,7.30
2006,04,18,02,29,7.30
2006,04,18,02,30,7.30
2006,04,18,02,31,7.30
2006,04,18,02,32,7.30
2006,04,18,02,33,7.30
2006,04,18,02,34,7.30
2006,04,18,02,35,7.30
2006,04,18,02,36,7.30
2006,04,18,02,37,7.30
2006,04,18,02,38,7.30
2006,04,18,02,39,7.30
2006,04,18,02,40,7.30
2006,04,18,02,41,7.30
2006,04,18,02,42,7.30
2006,04,18,02,43,7.30
2006,04,18,02,44,7.30
2006,04,18,02,45,7.30
2006,04,18,02,46,7.30
2006,04,18,02,47,7.30
2006,04,18,02,48,7.30
2006,04,18,02,49,7.30
2006,04,18,02,50,7.30
2006,04,18,02,51,7.30
2006,04,18,02,52,7.30
2006,04,18,02,53,7.30
2006,04,18,02,54,7.30
2006,04,18,02,55,7.30
2006,04,18,02,56,7.30
2006,04,18,02,57,7.30
2006,04,18,02,58,7.30
2006,04,18,02,59,7.30
2006,04,18,03,00,7.30
2006,04,18,03,01,7.30
2006,04,18,03,02,7.30
2006,04,18,03,03,7.30
2006,04,18,03,04,7.30
2006,04,18,03,05,7.30
2006,04,18,03,06,7.30
2006,04,18,03,07,7.30
2006,04,18,03,08,7.30
2006,04,18,03,09,7.30
2006,04,18,03,10,7.30
2006,04,18,03,11,7.30
2006,04,18,03,12,7.30
2006,04,18,03,13,7.30
2006,04,18,03,14,7.30
2006,04,18,03,15,7.30
2006,04,18,03,16,7.30
2006,04,18,03,17,7.30
2006,04,18,03,18,7.30
2006,04,18,03,19,7.30
2006,04,18,03,20,7.30
2006,04,18,03,21,7.30
2006,04,18,03,22,7.30
2006,04,18,03,23,7.30
2006,04,18,03,24,7.30
2006,04,18,03,25,7.30
2006,04,18,03,26,7.30
2006,04,18,03,27,7.30
2006,04,18,03,28,7.30
2006,04,18,03,29,7.30
2006,04,18,03,30,7.30
2006,04,18,03,31,7.30
2006,04,18,03,32,7.30
2006,04,18,03,33,7.30
2006,04,18,03,34,7.30
2006,04,18,03,35,7.30
2006,04,18,03,36,7.20
2006,04,18,03,37,7.20
2006,04,18,03,38,7.20
2006,04,18,03,39,7.20
2006,04,18,03,40,7.20
2006,04,18,03,41,7.20
2006,04,18,03,42,7.10
2006,04,18,03,43,7.10
2006,04,18,03,44,7.10
2006,04,18,03,45,7.10
2006,04,18,03,46,7.00
2006,04,18,03,47,7.00
2006,04,18,03,48,7.00
2006,04,18,03,49,6.90
2006,04,18,03,50,6.90
2006,04,18,03,51,6.90
2006,04,18,03,52,6.90
2006,04,18,03,53,6.90
2006,04,18,03,54,6.80
2006,04,18,03,55,6.80
2006,04,18,03,56,6.80
2006,04,18,03,57,6.80
2006,04,18,03,58,6.80
2006,04,18,03,59,6.80
2006,04,18,04,00,6.80
2006,04,18,04,01,6.80
2006,04,18,04,02,6.80
2006,04,18,04,03,6.80
2006,04,18,04,04,6.80
2006,04,18,04,05,6.80
2006,04,18,04,06,6.80
2006,04,18,04,07,6.80
2006,04,18,04,08,6.80
2006,04,18,04,09,6.80
2006,04,18,04,10,6.80
2006,04,18,04,11,6.80
2006,04,18,04,12,6.80
2006,04,18,04,13,6.70
2006,04,18,04,14,6.70
2006,04,18,04,15,6.70
2006,04,18,04,16,6.70
2006,04,18,04,17,6.70
2006,04,18,04,18,6.70
2006,04,18,04,19,6.70
2006,04,18,04,20,6.70
2006,04,18,04,21,6.70
2006,04,18,04,22,6.70
2006,04,18,04,23,6.80
2006,04,18,04,24,6.80
2006,04,18,04,25,6.80
2006,04,18,04,26,6.80
2006,04,18,04,27,6.80
2006,04,18,04,28,6.80
2006,04,18,04,29,6.80
2006,04,18,04,30,6.80
2006,04,18,04,31,6.80
2006,04,18,04,32,6.80
2006,04,18,04,33,6.80
2006,04,18,04,34,6.80
2006,04,18,04,35,6.80
2006,04,18,04,36,6.80
2006,04,18,04,37,6.80
2006,04,18,04,38,6.80
2006,04,18,04,39,6.80
2006,04,18,04,40,6.80
2006,04,18,04,41,6.80
2006,04,18,04,42,6.80
2006,04,18,04,43,6.70
2006,04,18,04,44,6.70
2006,04,18,04,45,6.70
2006,04,18,04,46,6.70
2006,04,18,04,47,6.70
2006,04,18,04,48,6.70
2006,04,18,04,49,6.60
2006,04,18,04,50,6.60
2006,04,18,04,51,6.60
2006,04,18,04,52,6.60
2006,04,18,04,53,6.60
2006,04,18,04,54,6.60
2006,04,18,04,55,6.60
2006,04,18,04,56,6.60
2006,04,18,04,57,6.50
2006,04,18,04,58,6.40
2006,04,18,04,59,6.40
2006,04,18,05,00,6.40
2006,04,18,05,01,6.40
2006,04,18,05,02,6.40
2006,04,18,05,03,6.40
2006,04,18,05,04,6.40
2006,04,18,05,05,6.40
2006,04,18,05,06,6.40
2006,04,18,05,07,6.40
2006,04,18,05,08,6.30
2006,04,18,05,09,6.30
2006,04,18,05,10,6.30
2006,04,18,05,11,6.30
2006,04,18,05,12,6.30
2006,04,18,05,13,6.30
2006,04,18,05,14,6.30
2006,04,18,05,15,6.20
2006,04,18,05,16,6.20
2006,04,18,05,17,6.20
2006,04,18,05,18,6.20
2006,04,18,05,19,6.20
2006,04,18,05,20,6.20
2006,04,18,05,21,6.20
2006,04,18,05,22,6.20
2006,04,18,05,23,6.20
2006,04,18,05,24,6.20
2006,04,18,05,25,6.20
2006,04,18,05,26,6.20
2006,04,18,05,27,6.20
2006,04,18,05,28,6.20
2006,04,18,05,29,6.20
2006,04,18,05,30,6.20
2006,04,18,05,31,6.20
2006,04,18,05,32,6.20
2006,04,18,05,33,6.10
2006,04,18,05,34,6.10
2006,04,18,05,35,6.10
2006,04,18,05,36,6.10
2006,04,18,05,37,6.10
2006,04,18,05,38,6.10
2006,04,18,05,39,6.10
2006,04,18,05,40,6.10
2006,04,18,05,41,6.10
2006,04,18,05,42,6.10
2006,04,18,05,43,6.10
2006,04,18,05,44,6.10
2006,04,18,05,45,6.10
2006,04,18,05,46,6.00
2006,04,18,05,47,6.00
2006,04,18,05,48,6.00
2006,04,18,05,49,6.00
2006,04,18,05,50,6.00
2006,04,18,05,51,6.00
2006,04,18,05,52,6.00
2006,04,18,05,53,6.00
2006,04,18,05,54,6.00
2006,04,18,05,55,6.00
2006,04,18,05,56,5.90
2006,04,18,05,57,5.90
2006,04,18,05,58,5.90
2006,04,18,05,59,5.90
2006,04,18,06,00,5.90
2006,04,18,06,01,5.90
2006,04,18,06,02,5.90
2006,04,18,06,03,5.90
2006,04,18,06,04,5.90
2006,04,18,06,05,5.90
2006,04,18,06,06,5.80
2006,04,18,06,07,5.80
2006,04,18,06,08,5.80
2006,04,18,06,09,5.80
2006,04,18,06,10,5.80
2006,04,18,06,11,5.80
2006,04,18,06,12,5.80
2006,04,18,06,13,5.80
2006,04,18,06,14,5.70
2006,04,18,06,15,5.70
2006,04,18,06,16,5.70
2006,04,18,06,17,5.70
2006,04,18,06,18,5.70
2006,04,18,06,19,5.70
2006,04,18,06,20,5.70
2006,04,18,06,21,5.70
2006,04,18,06,22,5.70
2006,04,18,06,23,5.70
2006,04,18,06,24,5.60
2006,04,18,06,25,5.60
2006,04,18,06,26,5.60
2006,04,18,06,27,5.60
2006,04,18,06,28,5.60
2006,04,18,06,29,5.50
2006,04,18,06,30,5.50
2006,04,18,06,31,5.50
2006,04,18,06,32,5.50
2006,04,18,06,33,5.50
2006,04,18,06,34,5.40
2006,04,18,06,35,5.40
2006,04,18,06,36,5.40
2006,04,18,06,37,5.40
2006,04,18,06,38,5.40
2006,04,18,06,39,5.40
2006,04,18,06,40,5.40
2006,04,18,06,41,5.40
2006,04,18,06,42,5.30
2006,04,18,06,43,5.30
2006,04,18,06,44,5.30
2006,04,18,06,45,5.30
2006,04,18,06,46,5.30
2006,04,18,06,47,5.30
2006,04,18,06,48,5.30
2006,04,18,06,49,5.30
2006,04,18,06,50,5.30
2006,04,18,06,51,5.30
2006,04,18,06,52,5.30
2006,04,18,06,53,5.30
2006,04,18,06,54,5.30
2006,04,18,06,55,5.30
2006,04,18,06,56,5.30
2006,04,18,06,57,5.30
2006,04,18,06,58,5.30
2006,04,18,06,59,5.30
2006,04,18,07,00,5.30
2006,04,18,07,01,5.30
2006,04,18,07,02,5.30
2006,04,18,07,03,5.30
2006,04,18,07,04,5.30
2006,04,18,07,05,5.30
2006,04,18,07,06,5.30
2006,04,18,07,07,5.30
2006,04,18,07,08,5.30
2006,04,18,07,09,5.30
2006,04,18,07,10,5.30
2006,04,18,07,11,5.30
2006,04,18,07,12,5.30
2006,04,18,07,13,5.40
2006,04,18,07,14,5.40
2006,04,18,07,15,5.40
2006,04,18,07,16,5.40
2006,04,18,07,17,5.40
2006,04,18,07,18,5.40
2006,04,18,07,19,5.40
2006,04,18,07,20,5.40
2006,04,18,07,21,5.50
2006,04,18,07,22,5.50
2006,04,18,07,23,5.50
2006,04,18,07,24,5.50
2006,04,18,07,25,5.50
2006,04,18,07,26,5.50
2006,04,18,07,27,5.50
2006,04,18,07,28,5.50
2006,04,18,07,29,5.50
2006,04,18,07,30,5.50
2006,04,18,07,31,5.60
2006,04,18,07,32,5.60
2006,04,18,07,33,5.60
2006,04,18,07,34,5.60
2006,04,18,07,35,5.60
2006,04,18,07,36,5.60
2006,04,18,07,37,5.70
2006,04,18,07,38,5.70
2006,04,18,07,39,5.70
2006,04,18,07,40,5.70
2006,04,18,07,41,5.70
2006,04,18,07,42,5.70
2006,04,18,07,43,5.70
2006,04,18,07,44,5.80
2006,04,18,07,45,5.80
2006,04,18,07,46,5.80
2006,04,18,07,47,5.90
2006,04,18,07,48,5.90
2006,04,18,07,49,5.90
2006,04,18,07,50,5.90
2006,04,18,07,51,6.00
2006,04,18,07,52,6.00
2006,04,18,07,53,6.00
2006,04,18,07,54,6.00
2006,04,18,07,55,6.10
2006,04,18,07,56,6.10
2006,04,18,07,57,6.10
2006,04,18,07,58,6.10
2006,04,18,07,59,6.20
2006,04,18,08,00,6.20
2006,04,18,08,01,6.20
2006,04,18,08,02,6.20
2006,04,18,08,03,6.20
2006,04,18,08,04,6.20
2006,04,18,08,05,6.20
2006,04,18,08,06,6.30
2006,04,18,08,07,6.30
2006,04,18,08,08,6.40
2006,04,18,08,09,6.40
2006,04,18,08,10,6.40
2006,04,18,08,11,6.40
2006,04,18,08,12,6.40
2006,04,18,08,13,6.50
2006,04,18,08,14,6.60
2006,04,18,08,15,6.60
2006,04,18,08,16,6.60
2006,04,18,08,17,6.60
2006,04,18,08,18,6.60
2006,04,18,08,19,6.70
2006,04,18,08,20,6.70
2006,04,18,08,21,6.70
2006,04,18,08,22,6.70
2006,04,18,08,23,6.70
2006,04,18,08,24,6.70
2006,04,18,08,25,6.70
2006,04,18,08,26,6.70
2006,04,18,08,27,6.80
2006,04,18,08,28,6.80
2006,04,18,08,29,6.80
2006,04,18,08,30,6.80
2006,04,18,08,31,6.80
2006,04,18,08,32,6.90
2006,04,18,08,33,6.90
2006,04,18,08,34,7.00
2006,04,18,08,35,7.00
2006,04,18,08,36,7.10
2006,04,18,08,37,7.10
2006,04,18,08,38,7.10
2006,04,18,08,39,7.20
2006,04,18,08,40,7.20
2006,04,18,08,41,7.20
2006,04,18,08,42,7.30
2006,04,18,08,43,7.30
2006,04,18,08,44,7.30
2006,04,18,08,45,7.30
2006,04,18,08,46,7.30
2006,04,18,08,47,7.30
2006,04,18,08,48,7.40
2006,04,18,08,49,7.40
2006,04,18,08,50,7.40
2006,04,18,08,51,7.50
2006,04,18,08,52,7.50
2006,04,18,08,53,7.50
2006,04,18,08,54,7.50
2006,04,18,08,55,7.50
2006,04,18,08,56,7.50
2006,04,18,08,57,7.50
2006,04,18,08,58,7.60
2006,04,18,08,59,7.60
2006,04,18,09,00,7.60
2006,04,18,09,01,7.70
2006,04,18,09,02,7.70
2006,04,18,09,03,7.70
2006,04,18,09,04,7.80
2006,04,18,09,05,7.80
2006,04,18,09,06,7.80
2006,04,18,09,07,7.90
2006,04,18,09,08,7.90
2006,04,18,09,09,8.00
2006,04,18,09,10,8.00
2006,04,18,09,11,8.10
2006,04,18,09,12,8.10
2006,04,18,09,13,8.20
2006,04,18,09,14,8.20
2006,04,18,09,15,8.30
2006,04,18,09,16,8.30
2006,04,18,09,17,8.30
2006,04,18,09,18,8.40
2006,04,18,09,19,8.50
2006,04,18,09,20,8.50
2006,04,18,09,21,8.50
2006,04,18,09,22,8.60
2006,04,18,09,23,8.60
2006,04,18,09,24,8.60
2006,04,18,09,25,8.60
2006,04,18,09,26,8.60
2006,04,18,09,27,8.60
2006,04,18,09,28,8.60
2006,04,18,09,29,8.60
2006,04,18,09,30,8.60
2006,04,18,09,31,8.60
2006,04,18,09,32,8.60
2006,04,18,09,33,8.60
2006,04,18,09,34,8.60
2006,04,18,09,35,8.70
2006,04,18,09,36,8.70
2006,04,18,09,37,8.80
2006,04,18,09,38,8.90
2006,04,18,09,39,9.00
2006,04,18,09,40,9.00
2006,04,18,09,41,9.10
2006,04,18,09,42,9.20
2006,04,18,09,43,9.20
2006,04,18,09,44,9.30
2006,04,18,09,45,9.40
2006,04,18,09,46,9.50
2006,04,18,09,47,9.50
2006,04,18,09,48,9.60
2006,04,18,09,49,9.60
2006,04,18,09,50,9.70
2006,04,18,09,51,9.70
2006,04,18,09,52,9.70
2006,04,18,09,53,9.70
2006,04,18,09,54,9.60
2006,04,18,09,55,9.60
2006,04,18,09,56,9.60
2006,04,18,09,57,9.50
2006,04,18,09,58,9.40
2006,04,18,09,59,9.30
2006,04,18,10,00,9.20
2006,04,18,10,01,9.20
2006,04,18,10,02,9.20
2006,04,18,10,03,9.20
2006,04,18,10,04,9.20
2006,04,18,10,05,9.20
2006,04,18,10,06,9.20
2006,04,18,10,07,9.20
2006,04,18,10,08,9.20
2006,04,18,10,09,9.20
2006,04,18,10,10,9.30
2006,04,18,10,11,9.40
2006,04,18,10,12,9.40
2006,04,18,10,13,9.50
2006,04,18,10,14,9.50
2006,04,18,10,15,9.50
2006,04,18,10,16,9.50
2006,04,18,10,17,9.50
2006,04,18,10,18,9.50
2006,04,18,10,19,9.60
2006,04,18,10,20,9.60
2006,04,18,10,21,9.70
2006,04,18,10,22,9.80
2006,04,18,10,23,9.90
2006,04,18,10,24,10.10
2006,04,18,10,25,10.20
2006,04,18,10,26,10.20
2006,04,18,10,27,10.20
2006,04,18,10,28,10.30
2006,04,18,10,29,10.40
2006,04,18,10,30,10.30
2006,04,18,10,31,10.10
2006,04,18,10,32,9.90
2006,04,18,10,33,9.70
2006,04,18,10,34,9.70
2006,04,18,10,35,9.70
2006,04,18,10,36,9.70
2006,04,18,10,37,9.70
2006,04,18,10,38,9.80
2006,04,18,10,39,9.80
2006,04,18,10,40,9.80
2006,04,18,10,41,9.80
2006,04,18,10,42,9.90
2006,04,18,10,43,9.90
2006,04,18,10,44,9.90
2006,04,18,10,45,10.10
2006,04,18,10,46,10.20
2006,04,18,10,47,10.30
2006,04,18,10,48,10.50
2006,04,18,10,49,10.60
2006,04,18,10,50,10.80
2006,04,18,10,51,10.90
2006,04,18,10,52,10.90
2006,04,18,10,53,10.90
2006,04,18,10,54,11.00
2006,04,18,10,55,11.00
2006,04,18,10,56,10.90
2006,04,18,10,57,10.90
2006,04,18,10,58,10.90
2006,04,18,10,59,10.90
2006,04,18,11,00,10.90
2006,04,18,11,01,10.90
2006,04,18,11,02,10.80
2006,04,18,11,03,10.60
2006,04,18,11,04,10.30
2006,04,18,11,05,10.10
2006,04,18,11,06,10.10
2006,04,18,11,07,10.00
2006,04,18,11,08,9.90
2006,04,18,11,09,9.90
2006,04,18,11,10,9.90
2006,04,18,11,11,9.90
2006,04,18,11,12,9.90
2006,04,18,11,13,9.90
2006,04,18,11,14,10.00
2006,04,18,11,15,10.10
2006,04,18,11,16,10.10
2006,04,18,11,17,10.10
2006,04,18,11,18,10.10
2006,04,18,11,19,10.10
2006,04,18,11,20,10.10
2006,04,18,11,21,10.00
2006,04,18,11,22,9.90
2006,04,18,11,23,9.90
2006,04,18,11,24,10.10
2006,04,18,11,25,10.10
2006,04,18,11,26,10.10
2006,04,18,11,27,10.10
2006,04,18,11,28,10.10
2006,04,18,11,29,10.10
2006,04,18,11,30,10.20
2006,04,18,11,31,10.20
2006,04,18,11,32,10.10
2006,04,18,11,33,10.10
2006,04,18,11,34,10.00
2006,04,18,11,35,9.90
2006,04,18,11,36,9.90
2006,04,18,11,37,9.90
2006,04,18,11,38,9.90
2006,04,18,11,39,9.80
2006,04,18,11,40,9.80
2006,04,18,11,41,9.80
2006,04,18,11,42,9.70
2006,04,18,11,43,9.70
2006,04,18,11,44,9.50
2006,04,18,11,45,9.40
2006,04,18,11,46,9.30
2006,04,18,11,47,9.20
2006,04,18,11,48,9.20
2006,04,18,11,49,9.20
2006,04,18,11,50,9.20
2006,04,18,11,51,9.20
2006,04,18,11,52,9.20
2006,04,18,11,53,9.20
2006,04,18,11,54,9.20
2006,04,18,11,55,9.20
2006,04,18,11,56,9.20
2006,04,18,11,57,9.10
2006,04,18,11,58,9.10
2006,04,18,11,59,8.90
2006,04,18,12,00,8.80
2006,04,18,12,01,8.80
2006,04,18,12,02,8.80
2006,04,18,12,03,8.80
2006,04,18,12,04,8.80
2006,04,18,12,05,8.80
2006,04,18,12,06,8.80
2006,04,18,12,07,8.80
2006,04,18,12,08,8.80
2006,04,18,12,09,8.80
2006,04,18,12,10,8.80
2006,04,18,12,11,8.80
2006,04,18,12,12,8.70
2006,04,18,12,13,8.80
2006,04,18,12,14,8.90
2006,04,18,12,15,9.00
2006,04,18,12,16,9.20
2006,04,18,12,17,9.20
2006,04,18,12,18,9.20
2006,04,18,12,19,9.20
2006,04,18,12,20,9.20
2006,04,18,12,21,9.20
2006,04,18,12,22,9.20
2006,04,18,12,23,9.20
2006,04,18,12,24,9.20
2006,04,18,12,25,9.20
2006,04,18,12,26,9.40
2006,04,18,12,27,9.40
2006,04,18,12,28,9.50
2006,04,18,12,29,9.50
2006,04,18,12,30,9.60
2006,04,18,12,31,9.70
2006,04,18,12,32,9.70
2006,04,18,12,33,9.80
2006,04,18,12,34,9.90
2006,04,18,12,35,9.90
2006,04,18,12,36,9.90
2006,04,18,12,37,9.90
2006,04,18,12,38,9.90
2006,04,18,12,39,9.90
2006,04,18,12,40,9.90
2006,04,18,12,41,9.80
2006,04,18,12,42,9.70
2006,04,18,12,43,9.70
2006,04,18,12,44,9.70
2006,04,18,12,45,9.70
2006,04,18,12,46,9.70
2006,04,18,12,47,9.70
2006,04,18,12,48,9.70
2006,04,18,12,49,9.70
2006,04,18,12,50,9.60
2006,04,18,12,51,9.50
2006,04,18,12,52,9.40
2006,04,18,12,53,9.40
2006,04,18,12,54,9.40
2006,04,18,12,55,9.40
2006,04,18,12,56,9.40
2006,04,18,12,57,9.40
2006,04,18,12,58,9.40
2006,04,18,12,59,9.50
2006,04,18,13,00,9.50
2006,04,18,13,01,9.60
2006,04,18,13,02,9.60
2006,04,18,13,03,9.50
2006,04,18,13,04,9.50
2006,04,18,13,05,9.40
2006,04,18,13,06,9.30
2006,04,18,13,07,9.30
2006,04,18,13,08,9.40
2006,04,18,13,09,9.40
2006,04,18,13,10,9.50
2006,04,18,13,11,9.50
2006,04,18,13,12,9.40
2006,04,18,13,13,9.40
2006,04,18,13,14,9.30
2006,04,18,13,15,9.30
2006,04,18,13,16,9.40
2006,04,18,13,17,9.40
2006,04,18,13,18,9.50
2006,04,18,13,19,9.60
2006,04,18,13,20,9.70
2006,04,18,13,21,9.70
2006,04,18,13,22,9.80
2006,04,18,13,23,9.80
2006,04,18,13,24,9.80
2006,04,18,13,25,9.80
2006,04,18,13,26,9.70
2006,04,18,13,27,9.70
2006,04,18,13,28,9.70
2006,04,18,13,29,9.70
2006,04,18,13,30,9.70
2006,04,18,13,31,9.70
2006,04,18,13,32,9.70
2006,04,18,13,33,9.80
2006,04,18,13,34,9.90
2006,04,18,13,35,10.00
2006,04,18,13,36,10.10
2006,04,18,13,37,10.00
2006,04,18,13,38,9.90
2006,04,18,13,39,9.80
2006,04,18,13,40,9.70
2006,04,18,13,41,9.70
2006,04,18,13,42,9.70
2006,04,18,13,43,9.70
2006,04,18,13,44,9.80
2006,04,18,13,45,9.90
2006,04,18,13,46,9.90
2006,04,18,13,47,9.90
2006,04,18,13,48,9.90
2006,04,18,13,49,9.90
2006,04,18,13,50,9.90
2006,04,18,13,51,9.90
2006,04,18,13,52,9.90
2006,04,18,13,53,9.80
2006,04,18,13,54,9.80
2006,04,18,13,55,9.80
2006,04,18,13,56,9.70
2006,04,18,13,57,9.70
2006,04,18,13,58,9.70
2006,04,18,13,59,9.70
2006,04,18,14,00,9.60
2006,04,18,14,01,9.60
2006,04,18,14,02,9.50
2006,04,18,14,03,9.50
2006,04,18,14,04,9.40
2006,04,18,14,05,9.40
2006,04,18,14,06,9.40
2006,04,18,14,07,9.40
2006,04,18,14,08,9.30
2006,04,18,14,09,9.20
2006,04,18,14,10,9.20
2006,04,18,14,11,9.20
2006,04,18,14,12,9.20
2006,04,18,14,13,9.10
2006,04,18,14,14,9.10
2006,04,18,14,15,9.10
2006,04,18,14,16,9.20
2006,04,18,14,17,9.20
2006,04,18,14,18,9.20
2006,04,18,14,19,9.20
2006,04,18,14,20,9.20
2006,04,18,14,21,9.30
2006,04,18,14,22,9.30
2006,04,18,14,23,9.30
2006,04,18,14,24,9.40
2006,04,18,14,25,9.40
2006,04,18,14,26,9.40
2006,04,18,14,27,9.50
2006,04,18,14,28,9.60
2006,04,18,14,29,9.70
2006,04,18,14,30,9.70
2006,04,18,14,31,9.80
2006,04,18,14,32,9.90
2006,04,18,14,33,9.90
2006,04,18,14,34,9.90
2006,04,18,14,35,9.90
2006,04,18,14,36,9.90
2006,04,18,14,37,9.90
2006,04,18,14,38,9.90
2006,04,18,14,39,10.00
2006,04,18,14,40,10.10
2006,04,18,14,41,10.20
2006,04,18,14,42,10.20
2006,04,18,14,43,10.20
2006,04,18,14,44,10.20
2006,04,18,14,45,10.10
2006,04,18,14,46,10.10
2006,04,18,14,47,10.00
2006,04,18,14,48,9.90
2006,04,18,14,49,9.90
2006,04,18,14,50,9.80
2006,04,18,14,51,9.80
2006,04,18,14,52,9.80
2006,04,18,14,53,9.80
2006,04,18,14,54,9.80
2006,04,18,14,55,9.70
2006,04,18,14,56,9.80
2006,04,18,14,57,9.80
2006,04,18,14,58,9.80
2006,04,18,14,59,9.80
2006,04,18,15,00,9.80
2006,04,18,15,01,9.90
2006,04,18,15,02,9.90
2006,04,18,15,03,10.00
2006,04,18,15,04,10.10
2006,04,18,15,05,10.10
2006,04,18,15,06,10.10
2006,04,18,15,07,10.10
2006,04,18,15,08,10.10
2006,04,18,15,09,10.00
2006,04,18,15,10,9.90
2006,04,18,15,11,9.90
2006,04,18,15,12,9.90
2006,04,18,15,13,10.00
2006,04,18,15,14,10.10
2006,04,18,15,15,10.10
2006,04,18,15,16,10.20
2006,04,18,15,17,10.20
2006,04,18,15,18,10.20
2006,04,18,15,19,10.30
2006,04,18,15,20,10.40
2006,04,18,15,21,10.60
2006,04,18,15,22,10.70
2006,04,18,15,23,10.90
2006,04,18,15,24,11.00
2006,04,18,15,25,11.20
2006,04,18,15,26,11.40
2006,04,18,15,27,11.40
2006,04,18,15,28,11.50
2006,04,18,15,29,11.60
2006,04,18,15,30,11.70
2006,04,18,15,31,11.70
2006,04,18,15,32,11.60
2006,04,18,15,33,11.60
2006,04,18,15,34,11.50
2006,04,18,15,35,11.40
2006,04,18,15,36,11.50
2006,04,18,15,37,11.60
2006,04,18,15,38,11.60
2006,04,18,15,39,11.60
2006,04,18,15,40,11.70
2006,04,18,15,41,11.80
2006,04,18,15,42,11.80
2006,04,18,15,43,11.90
2006,04,18,15,44,12.00
2006,04,18,15,45,12.20
2006,04,18,15,46,12.20
2006,04,18,15,47,12.10
2006,04,18,15,48,12.00
2006,04,18,15,49,11.90
2006,04,18,15,50,11.90
2006,04,18,15,51,11.80
2006,04,18,15,52,11.80
2006,04,18,15,53,11.80
2006,04,18,15,54,11.80
2006,04,18,15,55,11.80
2006,04,18,15,56,11.80
2006,04,18,15,57,11.80
2006,04,18,15,58,11.80
2006,04,18,15,59,11.80
2006,04,18,16,00,11.80
2006,04,18,16,01,11.80
2006,04,18,16,02,11.80
2006,04,18,16,03,11.80
2006,04,18,16,04,11.90
2006,04,18,16,05,11.90
2006,04,18,16,06,12.00
2006,04,18,16,07,12.10
2006,04,18,16,08,12.20
2006,04,18,16,09,12.20
2006,04,18,16,10,12.10
2006,04,18,16,11,12.00
2006,04,18,16,12,11.90
2006,04,18,16,13,11.80
2006,04,18,16,14,11.80
2006,04,18,16,15,11.80
2006,04,18,16,16,11.80
2006,04,18,16,17,11.70
2006,04,18,16,18,11.60
2006,04,18,16,19,11.60
2006,04,18,16,20,11.60
2006,04,18,16,21,11.60
2006,04,18,16,22,11.60
2006,04,18,16,23,11.60
2006,04,18,16,24,11.60
2006,04,18,16,25,11.60
2006,04,18,16,26,11.60
2006,04,18,16,27,11.60
2006,04,18,16,28,11.60
2006,04,18,16,29,11.60
2006,04,18,16,30,11.60
2006,04,18,16,31,11.60
2006,04,18,16,32,11.40
2006,04,18,16,33,11.30
2006,04,18,16,34,11.20
2006,04,18,16,35,11.10
2006,04,18,16,36,11.10
2006,04,18,16,37,11.20
2006,04,18,16,38,11.30
2006,04,18,16,39,11.30
2006,04,18,16,40,11.30
2006,04,18,16,41,11.40
2006,04,18,16,42,11.50
2006,04,18,16,43,11.60
2006,04,18,16,44,11.60
2006,04,18,16,45,11.60
2006,04,18,16,46,11.60
2006,04,18,16,47,11.60
2006,04,18,16,48,11.60
2006,04,18,16,49,11.60
2006,04,18,16,50,11.70
2006,04,18,16,51,11.80
2006,04,18,16,52,11.80
2006,04,18,16,53,11.90
2006,04,18,16,54,12.00
2006,04,18,16,55,12.10
2006,04,18,16,56,12.10
2006,04,18,16,57,12.00
2006,04,18,16,58,11.90
2006,04,18,16,59,11.80
2006,04,18,17,00,11.80
2006,04,18,17,01,11.90
2006,04,18,17,02,11.90
2006,04,18,17,03,11.90
2006,04,18,17,04,11.90
2006,04,18,17,05,11.90
2006,04,18,17,06,11.80
2006,04,18,17,07,11.80
2006,04,18,17,08,11.80
2006,04,18,17,09,11.80
2006,04,18,17,10,11.90
2006,04,18,17,11,11.90
2006,04,18,17,12,12.00
2006,04,18,17,13,12.00
2006,04,18,17,14,12.00
2006,04,18,17,15,12.00
2006,04,18,17,16,12.00
2006,04,18,17,17,12.10
2006,04,18,17,18,12.10
2006,04,18,17,19,12.10
2006,04,18,17,20,12.10
2006,04,18,17,21,12.10
2006,04,18,17,22,12.10
2006,04,18,17,23,12.10
2006,04,18,17,24,12.00
2006,04,18,17,25,12.00
2006,04,18,17,26,11.90
2006,04,18,17,27,11.80
2006,04,18,17,28,11.80
2006,04,18,17,29,11.80
2006,04,18,17,30,11.70
2006,04,18,17,31,11.70
2006,04,18,17,32,11.60
2006,04,18,17,33,11.60
2006,04,18,17,34,11.60
2006,04,18,17,35,11.60
2006,04,18,17,36,11.60
2006,04,18,17,37,11.60
2006,04,18,17,38,11.60
2006,04,18,17,39,11.50
2006,04,18,17,40,11.50
2006,04,18,17,41,11.60
2006,04,18,17,42,11.60
2006,04,18,17,43,11.60
2006,04,18,17,44,11.70
2006,04,18,17,45,11.70
2006,04,18,17,46,11.80
2006,04,18,17,47,11.80
2006,04,18,17,48,11.80
2006,04,18,17,49,11.80
2006,04,18,17,50,11.80
2006,04,18,17,51,11.80
2006,04,18,17,52,11.80
2006,04,18,17,53,11.90
2006,04,18,17,54,11.90
2006,04,18,17,55,11.90
2006,04,18,17,56,12.00